Weather History for KFSM - November, 2011

Change the Weather History Date:

Thursday, November 24, 2011

  Actual Average Record
Temperature  
Mean Temperature 52 °F 48 °F  
Max Temperature 59 °F 59 °F 80 °F (1965)
Min Temperature 44 °F 37 °F 15 °F (1970)
Degree Days  
Heating Degree Days 13 17  
Month to date heating degree days 216 300  
Since 1 July heating degree days 327 454  
Moisture  
Dew Point 45 °F    
Average Humidity 84    
Maximum Humidity 100    
Minimum Humidity 67    
Precipitation  
Precipitation 0.00 in 0.14 in 6.81 in (1973)
Month to date precipitation 6.80 3.59  
Year to date precipitation 42.73 41.32  
Sea Level Pressure  
Sea Level Pressure 30.29 in    
Wind  
Wind Speed 8 mph (East)    
Max Wind Speed 13 mph    
Max Gust Speed 16 mph    
Visibility 5 miles    
Events Fog    
T = Trace of Precipitation, MM = Missing Value Source: NWS Daily Summary

Daily Weather History Graph

Daily Weather History Graph

Search for Another Location

Airport or City:

Trip Planner

Search our weather history database for the weather conditions in past years. The results will help you decide how hot, cold, wet, or windy it might be!

Date:

Astronomy

Nov. 24, 2011 Rise Set
Actual Time 7:01 AM CST 5:06 PM CST
Civil Twilight 6:33 AM CST 5:34 PM CST
Nautical Twilight 6:02 AM CST 6:05 PM CST
Astronomical Twilight 5:32 AM CST 6:35 PM CST
Moon 6:19 AM CST (11/24) 4:39 PM CST (11/24)
Length of Visible Light 11h 00m
Length of Day
10h 05m
Waning Crescent, 0% of the Moon is Illuminated
Nov 24
Waning Crescent
Nov 25
New
Dec 2
First Quarter
Dec 10
Full
Dec 17
Last Quarter

Hourly Weather History & Observations

Time (CST) Temp. Windchill Dew Point Humidity Pressure Visibility Wind Dir Wind Speed Gust Speed Precip Events Conditions
12:53 AM 45.0 °F 42.6 °F 43.0 °F 93% 30.30 in 4.0 mi ENE 4.6 mph - N/A   Clear
1:53 AM 44.1 °F 39.5 °F 42.1 °F 93% 30.30 in 3.0 mi ENE 8.1 mph - N/A   Clear
2:03 AM 44.6 °F 40.7 °F 42.8 °F 93% 30.30 in 3.0 mi ENE 6.9 mph - N/A   Scattered Clouds
2:14 AM 44.6 °F 41.4 °F 42.8 °F 93% 30.30 in 3.0 mi ENE 5.8 mph - N/A   Mostly Cloudy
2:28 AM 46.4 °F 42.9 °F 42.8 °F 87% 30.30 in 2.5 mi ENE 6.9 mph - N/A   Overcast
2:39 AM 44.6 °F 39.2 °F 42.8 °F 93% 30.29 in 1.0 mi East 10.4 mph - N/A   Overcast
2:46 AM 44.6 °F 39.7 °F 42.8 °F 93% 30.29 in 0.5 mi East 9.2 mph - N/A Fog Fog
3:25 AM 44.6 °F 40.7 °F 42.8 °F 93% 30.30 in 0.2 mi East 6.9 mph - N/A Fog Fog
3:53 AM 45.0 °F 41.8 °F 44.1 °F 97% 30.30 in 0.2 mi East 5.8 mph - N/A Fog Fog
4:05 AM 44.6 °F 42.2 °F 44.6 °F 100% 30.30 in 0.5 mi East 4.6 mph - N/A Fog Fog
4:53 AM 44.6 °F 40.2 °F 42.8 °F 93% 30.30 in 0.5 mi East 8.1 mph - N/A Fog Fog
5:31 AM 46.4 °F 42.9 °F 44.6 °F 93% 30.30 in 0.5 mi East 6.9 mph - N/A Fog Fog
5:43 AM 46.4 °F 43.5 °F 44.6 °F 93% 30.30 in 0.5 mi East 5.8 mph - N/A Fog Fog
5:53 AM 46.0 °F 43.1 °F 44.1 °F 93% 30.30 in 0.5 mi East 5.8 mph - N/A Fog Fog
6:19 AM 46.4 °F 42.9 °F 44.6 °F 93% 30.31 in 1.2 mi ESE 6.9 mph - N/A   Overcast
6:49 AM 46.4 °F 44.3 °F 44.6 °F 93% 30.32 in 2.0 mi East 4.6 mph - N/A   Overcast
6:53 AM 46.9 °F - 45.0 °F 93% 30.32 in 2.0 mi East 6.9 mph - N/A   Overcast
7:06 AM 46.4 °F 44.3 °F 44.6 °F 93% 30.32 in 1.8 mi East 4.6 mph - N/A   Overcast
7:17 AM 46.4 °F 45.2 °F 44.6 °F 93% 30.33 in 2.0 mi East 3.5 mph - N/A   Overcast
7:27 AM 46.4 °F 43.5 °F 44.6 °F 93% 30.33 in 1.5 mi East 5.8 mph - N/A   Overcast
7:53 AM 46.9 °F - 45.0 °F 93% 30.33 in 1.5 mi East 8.1 mph - N/A   Overcast
8:53 AM 46.9 °F - 45.0 °F 93% 30.34 in 1.5 mi East 9.2 mph - N/A   Overcast
9:00 AM 48.2 °F - 44.6 °F 87% 30.34 in 3.0 mi East 8.1 mph - N/A   Overcast
9:53 AM 48.9 °F - 45.0 °F 86% 30.35 in 5.0 mi East 6.9 mph - N/A   Overcast
10:32 AM 48.2 °F - 46.4 °F 93% 30.34 in 6.0 mi ESE 8.1 mph - N/A   Overcast
10:53 AM 50.0 °F - 45.0 °F 83% 30.35 in 9.0 mi SE 6.9 mph - N/A   Overcast
11:06 AM 50.0 °F - 44.6 °F 82% 30.34 in 10.0 mi East 9.2 mph - N/A   Overcast
11:53 AM 52.0 °F - 46.0 °F 80% 30.31 in 10.0 mi East 6.9 mph - N/A   Overcast
12:31 PM 55.4 °F - 46.4 °F 72% 30.29 in 10.0 mi ENE 8.1 mph - N/A   Scattered Clouds
12:53 PM 55.0 °F - 46.9 °F 74% 30.28 in 10.0 mi NNE 10.4 mph - N/A   Partly Cloudy
1:53 PM 57.0 °F - 46.9 °F 69% 30.25 in 10.0 mi NE 10.4 mph - N/A   Clear
2:53 PM 57.9 °F - 48.0 °F 70% 30.24 in 10.0 mi NNE 11.5 mph - N/A   Clear
3:53 PM 57.2 °F - 48.2 °F 72% 30.23 in 10.0 mi NE 10.4 mph - N/A   Clear
4:53 PM 55.0 °F - 46.9 °F 74% 30.22 in 10.0 mi ENE 9.2 mph - N/A   Clear
5:53 PM 53.1 °F - 46.0 °F 77% 30.21 in 10.0 mi East 10.4 mph - N/A   Clear
6:53 PM 51.1 °F - 45.0 °F 80% 30.20 in 9.0 mi East 6.9 mph - N/A   Clear
7:53 PM 48.9 °F - 45.0 °F 86% 30.21 in 7.0 mi East 6.9 mph - N/A   Clear
8:53 PM 48.0 °F - 44.1 °F 86% 30.22 in 6.0 mi East 4.6 mph - N/A   Clear
9:53 PM 46.9 °F - 44.1 °F 90% 30.20 in 6.0 mi East 8.1 mph - N/A   Clear
10:53 PM 46.4 °F 42.9 °F 44.6 °F 93% 30.19 in 7.0 mi NE 6.9 mph - N/A   Clear
11:53 PM 45.0 °F 41.8 °F 42.1 °F 90% 30.20 in 6.0 mi ENE 5.8 mph - N/A   Clear